2024-149A (60468 NORAD) Tracking and Keplerian Element Data

This shows tracking and keplerian element data for the satellite.

Feedback or suggestion? Click here.




ElementValue
Catalog60468
Name2024-149A
Epoch Orbit863
Epoch Day286.72840737
Epoch Year2024
RAAN1.3129
Inclination97.4347
Eccentricity0.0003463
Argument of Perigee208.147
Mean Anonmoly151.9578
Mean Motion15.18770089
Decay Rate0.00015441
L11 60468U 24149A 24286.72840737 .00015441 00000+0 74497-3 0 9992
L22 60468 97.4347 1.3129 0003463 208.1470 151.9578 15.18770089 8633



Live tracking and technical data element details for 2024-149A (NORAD 60468). 2024-149A can be tracked NOW for your location showing map with azimuth and elevation plus other details from your city location.







IsCatalogInMostPopularTable: catalog: 60468, numindb: 5
Update: records affected: 1



GetName: 60468 2024-149A

Hit Count: updated at: Tue, 03 Dec 2024 01:39:49 GMT